This is the latest recevied weather packets stored in our database for station/object IW2NTF-3. If no packets are shown the sender has not sent any weather packets the latest 1 day(s).
| Time | Temp. | Humidity | Pressure | Rain* | Wind** | Luminosity | Snow |
|---|---|---|---|---|---|---|---|
| 1778092504 | 15° C | 75% | 1008.7 hPa | 0 mm | - | 0 W/m² | - |
| 1778092204 | 15° C | 76% | 1008.6 hPa | 0 mm | - | 0 W/m² | - |
| 1778092144 | 15° C | 76% | 1008.6 hPa | 0 mm | - | 0 W/m² | - |
| 1778091304 | 15.56° C | 75% | 1008.5 hPa | 0 mm | - | 5 W/m² | - |
| 1778091244 | 15.56° C | 75% | 1008.5 hPa | 0 mm | - | 7 W/m² | - |
| 1778091124 | 15.56° C | 74% | 1008.7 hPa | 0 mm | - | 7 W/m² | - |
| 1778089684 | 16.11° C | 73% | 1008.1 hPa | 0 mm | - | 16 W/m² | - |
| 1778088964 | 16.11° C | 73% | 1008.1 hPa | 0 mm | - | 33 W/m² | - |
| 1778088304 | 16.11° C | 74% | 1007.9 hPa | 0 mm | - | 21 W/m² | - |
| 1778087343 | 16.11° C | 73% | 1007.6 hPa | 0 mm | - | 21 W/m² | - |
| 1778086744 | 16.11° C | 72% | 1007.6 hPa | 0 mm | - | 30 W/m² | - |
| 1778086684 | 16.67° C | 71% | 1007.5 hPa | 0 mm | - | 30 W/m² | - |
| 1778085904 | 16.67° C | 70% | 1007.5 hPa | 0 mm | - | 28 W/m² | - |
| 1778085844 | 16.67° C | 70% | 1007.5 hPa | 0 mm | - | 28 W/m² | - |
| 1778085784 | 16.67° C | 70% | 1007.4 hPa | 0 mm | - | 32 W/m² | - |
| 1778085604 | 16.67° C | 70% | 1007.5 hPa | 0 mm | - | 32 W/m² | - |
| 1778085124 | 17.22° C | 70% | 1007.3 hPa | 0 mm | - | 30 W/m² | - |
| 1778083624 | 17.78° C | 67% | 1006.3 hPa | 0 mm | - | 51 W/m² | - |
| 1778083564 | 17.78° C | 67% | 1006.2 hPa | 0 mm | - | 83 W/m² | - |
| 1778083084 | 17.78° C | 67% | 1006.2 hPa | 0 mm | - | 401 W/m² | - |
| 1778083024 | 18.33° C | 67% | 1006.1 hPa | 0 mm | - | 401 W/m² | - |
| 1778082183 | 18.33° C | 67% | 1006.4 hPa | 0 mm | - | 323 W/m² | - |
| 1778081584 | 18.89° C | 67% | 1006.6 hPa | 0 mm | - | 359 W/m² | - |
| 1778081344 | 18.89° C | 65% | 1006.5 hPa | 0 mm | - | 517 W/m² | - |
| 1778081284 | 18.89° C | 65% | 1006.6 hPa | 0 mm | - | 517 W/m² | - |
* Rain latest hour (hover to see other rain measurements)
** Current wind speed in m/s (hover to see current wind gust speed)